P/2020 O3 ( PanSTARRS )

Japanese version
Home page
Updated on October 9, 2020

---------------------------------------------------------------------

* Profile

Discovery Date July 28, 2020
Magnitude 21.0 mag
Discoverer Pan-STARRS 1 telescope (Haleakala)

* Orbital Elements

Epoch 2021 Jan. 26.0 TT = JDT 2459240.5
T 2021 Jan. 29.70247 TT                                 Rudenko
q   4.1666788            (2000.0)            P               Q
n   0.09807518     Peri.   81.46602     +0.96864256     +0.20062001
a   4.6568970      Node   266.86687     -0.24274428     +0.88994179
e   0.1052671      Incl.    8.44100     +0.05297923     +0.40957931
P  10.0
From 64 observations 2020 July 20-Sept. 15, mean residual 0".3.

* Magnitudes Graph

        m1 = 12.0 + 5 log d + 10.0 log r

---------------------------------------------------------------------

The orbital elements are published on M.P.E.C. 2020-S188.
The magnitudes graphs are made with Comet for Windows.

---------------------------------------------------------------------

Copyright(C) Seiichi Yoshida (comet@aerith.net). All rights reserved.